LiveATC.Net - Listen to live air traffic control over the Internet!


ICAO: KCNO  IATA: CNO   Airport: Chino Airport
City: Chino   State/Province: California
Country: United States   Continent: North America
KCNO METAR Weather: KCNO 250353Z AUTO 27009KT 9SM CLR 24/14 A2996 RMK AO2 SLP140 T02390139
KCNO Flight Activity (FlightAware)
KCNO Airport Info   (AirNav) (iFlightPlanner)
KCNO VFR Sectional Chart   (iFlightPlanner) 
KCNO IFR Low Chart   (iFlightPlanner) 
KCNO Tower
Feed Status: UP   Listeners: 0
Listen right in your browser - requires Flash (in browser, requires Flash)
Click here to listen with your own player (launches your MP3 player)
KCNO Tower Audio Archives
FacilityFrequency
Chino Tower118.500


NOTICE

Unauthorized use prohibited. See LiveATC.net Terms of Service


Find LiveATC Audio Streams


Airport/ARTCC Code

Frequency
(e.g., 124.400, 128.75)
Site-wide search

Browse LiveATC Feeds
LiveATC Coverage Map
Top 50 LiveATC Feeds
Bad Weather Areas

LiveATC FAQ
Offer a LiveATC Feed
Contact LiveATC.net
Press Inquiries

LiveATC on iPhone
LiveATC on Android

Windows Phone
Windows 8/10

LiveATC Mobile
(Mobile browser)

ATC Audio Archives
Interesting Recordings

LiveATC Forums


Home Page
About LiveATC.net
Make a Donation
LiveATC Store

Terms of Use
Privacy Policy

Canadian Air Freqs

AIRMETs/SIGMETs

FAA Airport Status
Nat'l Airspace Status
Arrival Demand Charts


Server Software By:
Icecast.org
Liquidsoap